Station Historical Data
Daily Summary for October 9, 2017 Units:  English    Metric   Both
« Previous Day
Next Day »
Daily Weekly Monthly Yearly Custom
  High: Low: Average:
Temperature: 74.0 °F 56.6 °F 63.4 °F
Dew Point: 35.7 °F 13.1 °F 24.8 °F
Humidity: 43 % 14 % 24 %
Wind Speed: 30.0 mph 0.0 mph 5.5 mph
Wind Gust: 45.0 mph - -
Wind:- - SE
Pressure: 30.00 in 29.84 in -
Precipitation: 0.00 in    
Historical Graphs
 
 
Tabular Data for October 9, 2017
Time Temperature Dew Point Pressure Wind Wind Speed Wind Gust Humidity Rainfall Rate (Hourly) solar
00:03 59.4 °F 17.1 °F 29.85 in SE 24.0 mph 36.0 mph 19 % 0.00 in 0.00 W/m2
00:08 59.4 °F 15.9 °F 29.85 in East 18.0 mph 43.0 mph 18 % 0.00 in 0.00 W/m2
00:13 59.4 °F 15.9 °F 29.87 in ENE 30.0 mph 42.0 mph 18 % 0.00 in 0.00 W/m2
00:18 59.3 °F 15.8 °F 29.86 in ESE 8.0 mph 39.0 mph 18 % 0.00 in 0.00 W/m2
00:23 59.3 °F 15.8 °F 29.87 in SE 7.0 mph 41.0 mph 18 % 0.00 in 0.00 W/m2
00:33 59.2 °F 14.4 °F 29.86 in ESE 16.0 mph 32.0 mph 17 % 0.00 in 0.00 W/m2
00:38 59.1 °F 14.4 °F 29.86 in East 4.0 mph 37.0 mph 17 % 0.00 in 0.00 W/m2
00:43 59.1 °F 14.4 °F 29.86 in East 15.0 mph 38.0 mph 17 % 0.00 in 0.00 W/m2
00:48 59.1 °F 14.4 °F 29.86 in ENE 18.0 mph 44.0 mph 17 % 0.00 in 0.00 W/m2
00:53 59.2 °F 14.4 °F 29.86 in ENE 6.0 mph 37.0 mph 17 % 0.00 in 0.00 W/m2
00:58 59.3 °F 14.5 °F 29.86 in East 19.0 mph 39.0 mph 17 % 0.00 in 0.00 W/m2
01:03 59.3 °F 14.5 °F 29.86 in ESE 14.0 mph 38.0 mph 17 % 0.00 in 0.00 W/m2
01:13 59.3 °F 14.5 °F 29.86 in SE 8.0 mph 34.0 mph 17 % 0.00 in 0.00 W/m2
01:18 59.3 °F 15.8 °F 29.86 in ESE 7.0 mph 37.0 mph 18 % 0.00 in 0.00 W/m2
01:23 59.3 °F 15.8 °F 29.86 in ESE 11.0 mph 39.0 mph 18 % 0.00 in 0.00 W/m2
01:28 59.3 °F 15.8 °F 29.86 in SE 24.0 mph 43.0 mph 18 % 0.00 in 0.00 W/m2
01:33 59.2 °F 17.0 °F 29.86 in ESE 9.0 mph 45.0 mph 19 % 0.00 in 0.00 W/m2
01:38 59.1 °F 16.9 °F 29.86 in ESE 29.0 mph 33.0 mph 19 % 0.00 in 0.00 W/m2
01:44 59.0 °F 16.8 °F 29.86 in ENE 20.0 mph 36.0 mph 19 % 0.00 in 0.00 W/m2
01:49 58.8 °F 16.7 °F 29.85 in SE 13.0 mph 35.0 mph 19 % 0.00 in 0.00 W/m2
01:54 58.8 °F 16.7 °F 29.86 in ENE 14.0 mph 35.0 mph 19 % 0.00 in 0.00 W/m2
01:59 58.9 °F 17.9 °F 29.86 in East 2.0 mph 33.0 mph 20 % 0.00 in 0.00 W/m2
02:04 58.9 °F 16.7 °F 29.85 in ESE 12.0 mph 37.0 mph 19 % 0.00 in 0.00 W/m2
02:09 58.9 °F 16.7 °F 29.86 in SE 18.0 mph 44.0 mph 19 % 0.00 in 0.00 W/m2
02:14 59.1 °F 18.1 °F 29.86 in East 14.0 mph 41.0 mph 20 % 0.00 in 0.00 W/m2
02:19 59.2 °F 17.0 °F 29.85 in East 6.0 mph 42.0 mph 19 % 0.00 in 0.00 W/m2
02:24 59.2 °F 18.2 °F 29.86 in ENE 14.0 mph 35.0 mph 20 % 0.00 in 0.00 W/m2
02:29 59.2 °F 18.2 °F 29.86 in ESE 16.0 mph 43.0 mph 20 % 0.00 in 0.00 W/m2
02:34 59.1 °F 16.9 °F 29.86 in ESE 22.0 mph 39.0 mph 19 % 0.00 in 0.00 W/m2
02:39 59.1 °F 16.9 °F 29.85 in SE 7.0 mph 32.0 mph 19 % 0.00 in 0.00 W/m2
02:44 59.1 °F 16.9 °F 29.85 in ENE 27.0 mph 37.0 mph 19 % 0.00 in 0.00 W/m2
02:49 59.1 °F 16.9 °F 29.85 in ESE 9.0 mph 34.0 mph 19 % 0.00 in 0.00 W/m2
02:54 59.0 °F 16.8 °F 29.84 in SE 12.0 mph 35.0 mph 19 % 0.00 in 0.00 W/m2
02:56 59.1 °F 16.9 °F 29.85 in East 13.0 mph 34.0 mph 19 % 0.00 in 0.00 W/m2
03:01 59.1 °F 16.9 °F 29.85 in ENE 7.0 mph 28.0 mph 19 % 0.00 in 0.00 W/m2
03:06 59.0 °F 16.8 °F 29.85 in East 26.0 mph 33.0 mph 19 % 0.00 in 0.00 W/m2
03:11 59.0 °F 16.8 °F 29.85 in East 20.0 mph 42.0 mph 19 % 0.00 in 0.00 W/m2
03:16 59.1 °F 15.7 °F 29.84 in East 8.0 mph 38.0 mph 18 % 0.00 in 0.00 W/m2
03:22 59.2 °F 17.0 °F 29.85 in East 19.0 mph 23.0 mph 19 % 0.00 in 0.00 W/m2
03:27 59.1 °F 16.9 °F 29.84 in ESE 19.0 mph 30.0 mph 19 % 0.00 in 0.00 W/m2
03:32 59.0 °F 16.8 °F 29.85 in ESE 22.0 mph 42.0 mph 19 % 0.00 in 0.00 W/m2
03:37 59.0 °F 16.8 °F 29.84 in ESE 21.0 mph 37.0 mph 19 % 0.00 in 0.00 W/m2
03:42 59.0 °F 16.8 °F 29.84 in ESE 12.0 mph 30.0 mph 19 % 0.00 in 0.00 W/m2
03:47 59.0 °F 16.8 °F 29.84 in East 14.0 mph 35.0 mph 19 % 0.00 in 0.00 W/m2
03:52 58.9 °F 15.5 °F 29.84 in SE 22.0 mph 28.0 mph 18 % 0.00 in 0.00 W/m2
03:57 58.9 °F 15.5 °F 29.85 in ESE 25.0 mph 37.0 mph 18 % 0.00 in 0.00 W/m2
04:02 58.9 °F 15.5 °F 29.84 in East 8.0 mph 28.0 mph 18 % 0.00 in 0.00 W/m2
04:07 58.8 °F 15.4 °F 29.84 in East 25.0 mph 37.0 mph 18 % 0.00 in 0.00 W/m2
04:12 58.8 °F 15.4 °F 29.84 in ENE 15.0 mph 29.0 mph 18 % 0.00 in 0.00 W/m2
04:17 58.8 °F 14.1 °F 29.84 in SE 6.0 mph 29.0 mph 17 % 0.00 in 0.00 W/m2
04:22 58.9 °F 15.5 °F 29.84 in Calm   31.0 mph 18 % 0.00 in 0.00 W/m2
04:27 59.0 °F 14.3 °F 29.84 in East 24.0 mph 24.0 mph 17 % 0.00 in 0.00 W/m2
04:32 59.0 °F 14.3 °F 29.84 in ESE 5.0 mph 21.0 mph 17 % 0.00 in 0.00 W/m2
04:37 59.1 °F 14.4 °F 29.84 in ESE 6.0 mph 20.0 mph 17 % 0.00 in 0.00 W/m2
04:42 59.1 °F 14.4 °F 29.84 in ESE 19.0 mph 19.0 mph 17 % 0.00 in 0.00 W/m2
04:47 59.2 °F 14.4 °F 29.84 in East 20.0 mph 24.0 mph 17 % 0.00 in 0.00 W/m2
04:52 59.3 °F 13.1 °F 29.84 in Calm   34.0 mph 16 % 0.00 in 0.00 W/m2
04:57 59.3 °F 14.5 °F 29.84 in East 21.0 mph 35.0 mph 17 % 0.00 in 0.00 W/m2
05:02 59.3 °F 13.1 °F 29.84 in ESE 23.0 mph 24.0 mph 16 % 0.00 in 0.00 W/m2
05:07 59.3 °F 13.1 °F 29.84 in ESE 19.0 mph 26.0 mph 16 % 0.00 in 0.00 W/m2
05:12 59.4 °F 13.2 °F 29.84 in SE 1.0 mph 28.0 mph 16 % 0.00 in 0.00 W/m2
05:17 59.5 °F 13.3 °F 29.84 in ESE 15.0 mph 32.0 mph 16 % 0.00 in 0.00 W/m2
05:22 59.5 °F 13.3 °F 29.84 in SE 13.0 mph 32.0 mph 16 % 0.00 in 0.00 W/m2
05:24 59.4 °F 13.2 °F 29.84 in SE 6.0 mph 32.0 mph 16 % 0.00 in 0.00 W/m2
05:29 59.5 °F 13.3 °F 29.84 in East 12.0 mph 28.0 mph 16 % 0.00 in 0.00 W/m2
05:34 59.5 °F 13.3 °F 29.84 in ESE 19.0 mph 28.0 mph 16 % 0.00 in 0.00 W/m2
05:39 59.6 °F 13.4 °F 29.84 in East 18.0 mph 28.0 mph 16 % 0.00 in 0.00 W/m2
05:44 59.7 °F 14.8 °F 29.84 in East 6.0 mph 25.0 mph 17 % 0.00 in 0.00 W/m2
05:49 59.6 °F 13.4 °F 29.85 in East 13.0 mph 24.0 mph 16 % 0.00 in 0.00 W/m2
05:54 59.6 °F 13.4 °F 29.85 in East 18.0 mph 26.0 mph 16 % 0.00 in 0.00 W/m2
05:59 59.6 °F 13.4 °F 29.85 in ENE 3.0 mph 28.0 mph 16 % 0.00 in 0.00 W/m2
06:04 59.6 °F 13.4 °F 29.85 in ESE 6.0 mph 25.0 mph 16 % 0.00 in 0.00 W/m2
06:10 59.6 °F 14.8 °F 29.85 in ESE 12.0 mph 24.0 mph 17 % 0.00 in 0.00 W/m2
06:15 59.6 °F 13.4 °F 29.86 in ESE 28.0 mph 28.0 mph 16 % 0.00 in 0.00 W/m2
06:20 59.6 °F 13.4 °F 29.86 in SE 16.0 mph 33.0 mph 16 % 0.00 in 0.00 W/m2
06:25 59.6 °F 14.8 °F 29.86 in ESE 8.0 mph 27.0 mph 17 % 0.00 in 0.00 W/m2
06:30 59.6 °F 14.8 °F 29.86 in Calm   27.0 mph 17 % 0.00 in 0.00 W/m2
06:35 59.6 °F 14.8 °F 29.86 in ESE 15.0 mph 28.0 mph 17 % 0.00 in 0.00 W/m2
06:40 59.6 °F 14.8 °F 29.86 in ESE 9.0 mph 21.0 mph 17 % 0.00 in 0.00 W/m2
06:45 59.5 °F 13.3 °F 29.86 in ESE 8.0 mph 21.0 mph 16 % 0.00 in 0.00 W/m2
06:50 59.5 °F 14.7 °F 29.87 in East 9.0 mph 21.0 mph 17 % 0.00 in 0.00 W/m2
06:55 59.5 °F 14.7 °F 29.87 in SE 2.0 mph 27.0 mph 17 % 0.00 in 0.00 W/m2
07:00 59.5 °F 14.7 °F 29.88 in SE 17.0 mph 20.0 mph 17 % 0.00 in 0.00 W/m2
07:05 59.4 °F 14.6 °F 29.88 in SE 11.0 mph 23.0 mph 17 % 0.00 in 5.00 W/m2
07:15 59.3 °F 14.5 °F 29.88 in ESE 7.0 mph 13.0 mph 17 % 0.00 in 9.00 W/m2
07:20 59.2 °F 14.4 °F 29.88 in ESE 8.0 mph 18.0 mph 17 % 0.00 in 12.00 W/m2
07:25 59.0 °F 15.6 °F 29.89 in ESE 11.0 mph 14.0 mph 18 % 0.00 in 14.00 W/m2
07:30 58.9 °F 15.5 °F 29.89 in ESE 14.0 mph 16.0 mph 18 % 0.00 in 18.00 W/m2
07:35 58.8 °F 15.4 °F 29.89 in SE 6.0 mph 14.0 mph 18 % 0.00 in 28.00 W/m2
07:40 58.6 °F 16.5 °F 29.89 in SE 9.0 mph 14.0 mph 19 % 0.00 in 35.00 W/m2
07:45 58.5 °F 16.4 °F 29.89 in ESE 1.0 mph 16.0 mph 19 % 0.00 in 49.00 W/m2
07:50 58.4 °F 16.3 °F 29.90 in ESE 4.0 mph 18.0 mph 19 % 0.00 in 63.00 W/m2
07:55 58.3 °F 16.2 °F 29.90 in SE 10.0 mph 15.0 mph 19 % 0.00 in 79.00 W/m2
08:00 58.2 °F 16.2 °F 29.90 in SE 5.0 mph 14.0 mph 19 % 0.00 in 97.00 W/m2
08:05 58.2 °F 16.2 °F 29.91 in ESE 14.0 mph 14.0 mph 19 % 0.00 in 116.00 W/m2
08:10 58.2 °F 16.2 °F 29.91 in SE 15.0 mph 20.0 mph 19 % 0.00 in 141.00 W/m2
08:15 58.3 °F 17.4 °F 29.91 in ESE 13.0 mph 19.0 mph 20 % 0.00 in 158.00 W/m2
08:20 58.4 °F 17.5 °F 29.92 in SE 10.0 mph 20.0 mph 20 % 0.00 in 174.00 W/m2
08:25 58.5 °F 16.4 °F 29.92 in SE 9.0 mph 15.0 mph 19 % 0.00 in 190.00 W/m2
08:30 58.7 °F 17.8 °F 29.92 in ESE 7.0 mph 18.0 mph 20 % 0.00 in 220.00 W/m2
08:35 59.0 °F 16.8 °F 29.92 in ESE 15.0 mph 16.0 mph 19 % 0.00 in 243.00 W/m2
08:40 59.3 °F 17.1 °F 29.92 in SE 13.0 mph 20.0 mph 19 % 0.00 in 264.00 W/m2
08:45 59.6 °F 16.1 °F 29.92 in East 11.0 mph 21.0 mph 18 % 0.00 in 278.00 W/m2
08:50 60.2 °F 17.8 °F 29.93 in SE 15.0 mph 23.0 mph 19 % 0.00 in 294.00 W/m2
08:55 60.5 °F 16.8 °F 29.93 in ESE 6.0 mph 19.0 mph 18 % 0.00 in 322.00 W/m2
09:00 60.8 °F 18.3 °F 29.93 in Calm   19.0 mph 19 % 0.00 in 338.00 W/m2
09:05 61.0 °F 17.2 °F 29.93 in ESE 7.0 mph 22.0 mph 18 % 0.00 in 357.00 W/m2
09:10 61.3 °F 18.7 °F 29.93 in Calm   15.0 mph 19 % 0.00 in 371.00 W/m2
09:15 61.5 °F 18.9 °F 29.93 in Calm   12.0 mph 19 % 0.00 in 388.00 W/m2
09:20 61.8 °F 19.1 °F 29.93 in ESE 12.0 mph 15.0 mph 19 % 0.00 in 399.00 W/m2
09:25 62.0 °F 18.0 °F 29.93 in Calm   16.0 mph 18 % 0.00 in 415.00 W/m2
09:30 62.3 °F 17.0 °F 29.94 in Calm   13.0 mph 17 % 0.00 in 431.00 W/m2
09:35 62.7 °F 19.9 °F 29.93 in SE 15.0 mph 16.0 mph 19 % 0.00 in 439.00 W/m2
09:41 63.0 °F 18.9 °F 29.93 in Calm   20.0 mph 18 % 0.00 in 461.00 W/m2
09:45 63.4 °F 19.2 °F 29.94 in SE 12.0 mph 12.0 mph 18 % 0.00 in 475.00 W/m2
09:51 63.7 °F 18.1 °F 29.94 in Calm     17 % 0.00 in 487.00 W/m2
09:56 64.0 °F 19.7 °F 29.94 in Calm   14.0 mph 18 % 0.00 in 499.00 W/m2
10:01 64.2 °F 19.8 °F 29.94 in Calm     18 % 0.00 in 512.00 W/m2
10:06 64.5 °F 18.8 °F 29.94 in Calm     17 % 0.00 in 524.00 W/m2
10:08 64.6 °F 18.8 °F 29.94 in ESE 1.0 mph 1.0 mph 17 % 0.00 in 529.00 W/m2
10:13 64.9 °F 20.4 °F 29.94 in Calm   4.0 mph 18 % 0.00 in 545.00 W/m2
10:18 65.4 °F 19.5 °F 29.94 in Calm   4.0 mph 17 % 0.00 in 555.00 W/m2
10:23 65.7 °F 19.7 °F 29.94 in Calm   2.0 mph 17 % 0.00 in 566.00 W/m2
10:28 66.2 °F 18.7 °F 29.94 in ESE 1.0 mph 2.0 mph 16 % 0.00 in 578.00 W/m2
10:33 66.7 °F 19.1 °F 29.95 in ESE 2.0 mph 2.0 mph 16 % 0.00 in 589.00 W/m2
10:38 67.0 °F 19.4 °F 29.95 in SE 2.0 mph 2.0 mph 16 % 0.00 in 599.00 W/m2
10:43 67.3 °F 19.6 °F 29.95 in Calm   1.0 mph 16 % 0.00 in 612.00 W/m2
10:48 67.6 °F 19.9 °F 29.95 in Calm   2.0 mph 16 % 0.00 in 621.00 W/m2
10:53 67.8 °F 18.5 °F 29.95 in South 2.0 mph 6.0 mph 15 % 0.00 in 631.00 W/m2
10:54 67.8 °F 18.5 °F 29.95 in Calm   6.0 mph 15 % 0.00 in 629.00 W/m2
10:59 68.1 °F 20.2 °F 29.95 in SSW 11.0 mph 12.0 mph 16 % 0.00 in 640.00 W/m2
11:04 68.3 °F 18.9 °F 29.95 in Calm   10.0 mph 15 % 0.00 in 649.00 W/m2
11:09 68.6 °F 17.5 °F 29.95 in Calm   2.0 mph 14 % 0.00 in 656.00 W/m2
11:14 69.0 °F 17.9 °F 29.95 in Calm   1.0 mph 14 % 0.00 in 664.00 W/m2
11:19 69.4 °F 18.2 °F 29.96 in Calm   1.0 mph 14 % 0.00 in 671.00 W/m2
11:24 69.7 °F 18.4 °F 29.95 in SW 5.0 mph 8.0 mph 14 % 0.00 in 677.00 W/m2
11:29 70.0 °F 20.3 °F 29.95 in SW 8.0 mph 9.0 mph 15 % 0.00 in 684.00 W/m2
11:34 70.3 °F 22.0 °F 29.95 in Calm   2.0 mph 16 % 0.00 in 691.00 W/m2
11:39 70.4 °F 20.6 °F 29.96 in Calm   2.0 mph 15 % 0.00 in 696.00 W/m2
11:44 70.5 °F 20.7 °F 29.95 in Calm   10.0 mph 15 % 0.00 in 701.00 W/m2
11:49 70.7 °F 20.8 °F 29.96 in Calm   7.0 mph 15 % 0.00 in 708.00 W/m2
11:54 70.9 °F 21.0 °F 29.96 in SW 6.0 mph 11.0 mph 15 % 0.00 in 712.00 W/m2
11:59 71.1 °F 24.1 °F 29.96 in Calm   10.0 mph 17 % 0.00 in 715.00 W/m2
12:04 71.2 °F 25.6 °F 29.96 in Calm   10.0 mph 18 % 0.00 in 719.00 W/m2
12:09 71.0 °F 26.7 °F 29.96 in West 2.0 mph 10.0 mph 19 % 0.00 in 721.00 W/m2
12:14 71.0 °F 28.0 °F 29.96 in SW 6.0 mph 12.0 mph 20 % 0.00 in 717.00 W/m2
12:19 71.1 °F 26.8 °F 29.96 in WSW 8.0 mph 9.0 mph 19 % 0.00 in 724.00 W/m2
12:24 71.1 °F 26.8 °F 29.96 in SW 8.0 mph 11.0 mph 19 % 0.00 in 724.00 W/m2
12:29 71.2 °F 26.9 °F 29.96 in Calm   10.0 mph 19 % 0.00 in 728.00 W/m2
12:39 71.1 °F 28.0 °F 29.96 in West 1.0 mph 10.0 mph 20 % 0.00 in 726.00 W/m2
12:44 71.2 °F 26.9 °F 29.96 in Calm   8.0 mph 19 % 0.00 in 731.00 W/m2
12:49 71.3 °F 28.2 °F 29.96 in Calm   11.0 mph 20 % 0.00 in 731.00 W/m2
12:54 71.4 °F 28.3 °F 29.96 in WNW 1.0 mph 2.0 mph 20 % 0.00 in 728.00 W/m2
13:00 71.5 °F 28.4 °F 29.95 in West 8.0 mph 10.0 mph 20 % 0.00 in 729.00 W/m2
13:05 71.7 °F 29.7 °F 29.95 in Calm   10.0 mph 21 % 0.00 in 724.00 W/m2
13:10 71.8 °F 28.6 °F 29.95 in Calm   7.0 mph 20 % 0.00 in 724.00 W/m2
13:15 71.8 °F 28.6 °F 29.95 in Calm   4.0 mph 20 % 0.00 in 719.00 W/m2
13:20 71.8 °F 29.8 °F 29.95 in Calm   2.0 mph 21 % 0.00 in 714.00 W/m2
13:25 71.9 °F 29.9 °F 29.95 in Calm   1.0 mph 21 % 0.00 in 710.00 W/m2
13:30 72.1 °F 30.0 °F 29.95 in Calm   3.0 mph 21 % 0.00 in 708.00 W/m2
13:35 72.3 °F 31.4 °F 29.95 in SW 2.0 mph 4.0 mph 22 % 0.00 in 705.00 W/m2
13:40 72.6 °F 30.5 °F 29.95 in Calm   3.0 mph 21 % 0.00 in 701.00 W/m2
13:45 72.8 °F 29.4 °F 29.94 in Calm   6.0 mph 20 % 0.00 in 698.00 W/m2
13:50 72.8 °F 31.8 °F 29.95 in WSW 1.0 mph 8.0 mph 22 % 0.00 in 687.00 W/m2
13:55 73.0 °F 30.8 °F 29.94 in Calm   1.0 mph 21 % 0.00 in 682.00 W/m2
14:00 73.1 °F 30.9 °F 29.94 in SW 1.0 mph 2.0 mph 21 % 0.00 in 679.00 W/m2
14:05 73.4 °F 32.3 °F 29.94 in Calm   4.0 mph 22 % 0.00 in 673.00 W/m2
14:10 73.5 °F 31.2 °F 29.94 in Calm   7.0 mph 21 % 0.00 in 664.00 W/m2
14:15 73.6 °F 31.3 °F 29.94 in Calm     21 % 0.00 in 657.00 W/m2
14:21 73.6 °F 31.3 °F 29.93 in Calm   3.0 mph 21 % 0.00 in 649.00 W/m2
14:26 73.7 °F 32.5 °F 29.93 in Calm   2.0 mph 22 % 0.00 in 638.00 W/m2
14:31 73.8 °F 31.5 °F 29.93 in WSW 2.0 mph 2.0 mph 21 % 0.00 in 631.00 W/m2
14:41 74.0 °F 32.8 °F 29.93 in Calm     22 % 0.00 in 612.00 W/m2
14:46 74.0 °F 32.8 °F 29.93 in Calm   1.0 mph 22 % 0.00 in 603.00 W/m2
14:51 74.0 °F 31.6 °F 29.93 in Calm   2.0 mph 21 % 0.00 in 589.00 W/m2
14:56 74.0 °F 32.8 °F 29.93 in Calm   1.0 mph 22 % 0.00 in 578.00 W/m2
15:01 73.8 °F 32.6 °F 29.94 in Calm     22 % 0.00 in 571.00 W/m2
15:06 73.7 °F 31.4 °F 29.94 in Calm   1.0 mph 21 % 0.00 in 559.00 W/m2
15:08 73.7 °F 32.5 °F 29.94 in WSW 2.0 mph 3.0 mph 22 % 0.00 in 555.00 W/m2
15:13 73.7 °F 32.5 °F 29.94 in SW 8.0 mph 14.0 mph 22 % 0.00 in 541.00 W/m2
15:18 73.6 °F 32.5 °F 29.95 in WSW 5.0 mph 12.0 mph 22 % 0.00 in 529.00 W/m2
15:23 73.3 °F 32.2 °F 29.95 in SW 7.0 mph 11.0 mph 22 % 0.00 in 513.00 W/m2
15:33 72.8 °F 32.9 °F 29.95 in WSW 6.0 mph 12.0 mph 23 % 0.00 in 492.00 W/m2
15:38 72.5 °F 32.6 °F 29.94 in WSW 6.0 mph 9.0 mph 23 % 0.00 in 476.00 W/m2
15:43 72.2 °F 32.4 °F 29.94 in West 7.0 mph 11.0 mph 23 % 0.00 in 466.00 W/m2
15:48 72.0 °F 32.2 °F 29.94 in West 5.0 mph 11.0 mph 23 % 0.00 in 454.00 W/m2
15:58 71.7 °F 33.0 °F 29.95 in Calm   3.0 mph 24 % 0.00 in 424.00 W/m2
16:03 71.6 °F 32.9 °F 29.95 in Calm   2.0 mph 24 % 0.00 in 410.00 W/m2
16:08 71.3 °F 31.6 °F 29.95 in Calm   3.0 mph 23 % 0.00 in 397.00 W/m2
16:13 71.2 °F 32.6 °F 29.95 in Calm   2.0 mph 24 % 0.00 in 381.00 W/m2
16:18 71.1 °F 32.5 °F 29.95 in Calm   2.0 mph 24 % 0.00 in 371.00 W/m2
16:23 71.1 °F 33.5 °F 29.94 in Calm   3.0 mph 25 % 0.00 in 357.00 W/m2
16:24 71.0 °F 33.4 °F 29.95 in Calm   3.0 mph 25 % 0.00 in 355.00 W/m2
16:29 71.0 °F 33.4 °F 29.95 in SW 5.0 mph 11.0 mph 25 % 0.00 in 336.00 W/m2
16:34 71.0 °F 32.4 °F 29.95 in Calm     24 % 0.00 in 322.00 W/m2
16:39 70.9 °F 33.4 °F 29.95 in Calm     25 % 0.00 in 306.00 W/m2
16:44 70.8 °F 33.3 °F 29.95 in Calm     25 % 0.00 in 292.00 W/m2
16:49 70.8 °F 33.3 °F 29.95 in Calm   2.0 mph 25 % 0.00 in 278.00 W/m2
16:54 70.6 °F 32.1 °F 29.95 in Calm   2.0 mph 24 % 0.00 in 262.00 W/m2
16:59 70.5 °F 33.0 °F 29.95 in Calm   2.0 mph 25 % 0.00 in 250.00 W/m2
17:04 70.4 °F 33.9 °F 29.95 in Calm     26 % 0.00 in 230.00 W/m2
17:09 70.2 °F 32.8 °F 29.95 in Calm     25 % 0.00 in 214.00 W/m2
17:14 70.1 °F 33.7 °F 29.95 in Calm     26 % 0.00 in 197.00 W/m2
17:19 70.1 °F 33.7 °F 29.95 in Calm     26 % 0.00 in 176.00 W/m2
17:24 70.0 °F 33.6 °F 29.95 in Calm     26 % 0.00 in 162.00 W/m2
17:29 69.9 °F 34.4 °F 29.95 in Calm     27 % 0.00 in 142.00 W/m2
17:34 69.8 °F 34.3 °F 29.95 in Calm     27 % 0.00 in 123.00 W/m2
17:39 69.7 °F 34.3 °F 29.95 in Calm   1.0 mph 27 % 0.00 in 100.00 W/m2
17:44 69.4 °F 33.1 °F 29.95 in Calm     26 % 0.00 in 86.00 W/m2
17:46 69.4 °F 34.0 °F 29.95 in Calm     27 % 0.00 in 83.00 W/m2
17:51 69.1 °F 33.7 °F 29.95 in Calm   1.0 mph 27 % 0.00 in 67.00 W/m2
17:56 68.8 °F 34.4 °F 29.95 in Calm     28 % 0.00 in 53.00 W/m2
18:01 68.7 °F 34.3 °F 29.95 in Calm     28 % 0.00 in 42.00 W/m2
18:06 68.6 °F 35.1 °F 29.95 in Calm     29 % 0.00 in 33.00 W/m2
18:11 68.4 °F 34.9 °F 29.95 in Calm     29 % 0.00 in 25.00 W/m2
18:16 68.1 °F 35.5 °F 29.95 in Calm     30 % 0.00 in 19.00 W/m2
18:21 67.6 °F 35.1 °F 29.95 in Calm     30 % 0.00 in 14.00 W/m2
18:26 66.9 °F 35.3 °F 29.95 in Calm     31 % 0.00 in 11.00 W/m2
18:31 66.1 °F 35.4 °F 29.95 in Calm     32 % 0.00 in 7.00 W/m2
18:36 65.4 °F 35.6 °F 29.95 in Calm     33 % 0.00 in 5.00 W/m2
18:41 64.9 °F 35.1 °F 29.96 in Calm     33 % 0.00 in 0.00 W/m2
18:46 64.4 °F 35.5 °F 29.96 in Calm     34 % 0.00 in 0.00 W/m2
18:56 63.3 °F 35.2 °F 29.96 in Calm     35 % 0.00 in 0.00 W/m2
19:01 63.0 °F 34.9 °F 29.96 in Calm     35 % 0.00 in 0.00 W/m2
19:06 62.6 °F 35.3 °F 29.96 in Calm     36 % 0.00 in 0.00 W/m2
19:11 62.4 °F 35.1 °F 29.96 in Calm     36 % 0.00 in 0.00 W/m2
19:16 62.2 °F 34.9 °F 29.97 in Calm     36 % 0.00 in 0.00 W/m2
19:21 61.9 °F 34.7 °F 29.97 in Calm     36 % 0.00 in 0.00 W/m2
19:26 61.7 °F 34.5 °F 29.97 in Calm     36 % 0.00 in 0.00 W/m2
19:31 61.6 °F 35.1 °F 29.97 in Calm     37 % 0.00 in 0.00 W/m2
19:36 61.4 °F 34.9 °F 29.98 in Calm     37 % 0.00 in 0.00 W/m2
19:41 61.2 °F 34.7 °F 29.98 in Calm     37 % 0.00 in 0.00 W/m2
19:46 60.9 °F 35.1 °F 29.98 in Calm     38 % 0.00 in 0.00 W/m2
19:51 60.7 °F 35.0 °F 29.98 in Calm     38 % 0.00 in 0.00 W/m2
19:56 60.5 °F 35.4 °F 29.98 in Calm     39 % 0.00 in 0.00 W/m2
20:01 60.3 °F 35.3 °F 29.98 in Calm     39 % 0.00 in 0.00 W/m2
20:06 60.1 °F 35.7 °F 29.98 in Calm     40 % 0.00 in 0.00 W/m2
20:12 59.9 °F 35.5 °F 29.98 in Calm     40 % 0.00 in 0.00 W/m2
20:17 59.8 °F 35.5 °F 29.98 in Calm     40 % 0.00 in 0.00 W/m2
20:19 59.7 °F 35.4 °F 29.98 in Calm     40 % 0.00 in 0.00 W/m2
20:22 59.6 °F 35.3 °F 29.98 in Calm     40 % 0.00 in 0.00 W/m2
20:34 59.1 °F 35.4 °F 29.98 in Calm     41 % 0.00 in 0.00 W/m2
20:44 59.0 °F 35.3 °F 29.98 in Calm     41 % 0.00 in 0.00 W/m2
20:49 59.0 °F 35.3 °F 29.98 in Calm     41 % 0.00 in 0.00 W/m2
20:54 59.1 °F 35.4 °F 29.99 in Calm     41 % 0.00 in 0.00 W/m2
20:59 59.0 °F 35.3 °F 29.99 in Calm     41 % 0.00 in 0.00 W/m2
21:04 59.0 °F 35.3 °F 29.99 in Calm     41 % 0.00 in 0.00 W/m2
21:09 59.1 °F 35.4 °F 29.99 in Calm     41 % 0.00 in 0.00 W/m2
21:14 59.1 °F 35.4 °F 29.99 in Calm     41 % 0.00 in 0.00 W/m2
21:20 58.9 °F 35.3 °F 29.99 in Calm     41 % 0.00 in 0.00 W/m2
21:25 58.9 °F 35.3 °F 29.99 in Calm     41 % 0.00 in 0.00 W/m2
21:30 58.8 °F 35.2 °F 29.99 in Calm     41 % 0.00 in 0.00 W/m2
21:33 58.7 °F 35.1 °F 29.99 in Calm     41 % 0.00 in 0.00 W/m2
21:38 58.6 °F 35.0 °F 29.99 in Calm     41 % 0.00 in 0.00 W/m2
21:43 58.6 °F 35.0 °F 29.99 in Calm     41 % 0.00 in 0.00 W/m2
21:48 58.5 °F 34.9 °F 29.99 in Calm     41 % 0.00 in 0.00 W/m2
21:53 58.4 °F 34.8 °F 29.99 in Calm   4.0 mph 41 % 0.00 in 0.00 W/m2
21:58 58.4 °F 34.8 °F 29.99 in Calm   4.0 mph 41 % 0.00 in 0.00 W/m2
22:03 58.3 °F 34.7 °F 30.00 in ESE 2.0 mph 4.0 mph 41 % 0.00 in 0.00 W/m2
22:08 58.2 °F 34.6 °F 30.00 in Calm   4.0 mph 41 % 0.00 in 0.00 W/m2
22:13 58.2 °F 34.6 °F 30.00 in ESE 1.0 mph 2.0 mph 41 % 0.00 in 0.00 W/m2
22:18 58.2 °F 34.6 °F 30.00 in Calm   1.0 mph 41 % 0.00 in 0.00 W/m2
22:23 58.1 °F 34.5 °F 30.00 in Calm   1.0 mph 41 % 0.00 in 0.00 W/m2
22:28 58.0 °F 34.5 °F 30.00 in Calm     41 % 0.00 in 0.00 W/m2
22:33 58.0 °F 34.5 °F 30.00 in Calm   4.0 mph 41 % 0.00 in 0.00 W/m2
22:38 57.8 °F 34.3 °F 30.00 in Calm   4.0 mph 41 % 0.00 in 0.00 W/m2
22:43 57.7 °F 34.8 °F 30.00 in ESE 1.0 mph 4.0 mph 42 % 0.00 in 0.00 W/m2
22:48 57.6 °F 34.7 °F 30.00 in Calm   2.0 mph 42 % 0.00 in 0.00 W/m2
22:53 57.5 °F 34.6 °F 30.00 in Calm   2.0 mph 42 % 0.00 in 0.00 W/m2
22:58 57.5 °F 34.6 °F 30.00 in Calm   2.0 mph 42 % 0.00 in 0.00 W/m2
23:03 57.4 °F 34.5 °F 30.00 in Calm   4.0 mph 42 % 0.00 in 0.00 W/m2
23:08 57.3 °F 34.4 °F 30.00 in Calm   1.0 mph 42 % 0.00 in 0.00 W/m2
23:13 57.3 °F 34.4 °F 30.00 in Calm   1.0 mph 42 % 0.00 in 0.00 W/m2
23:19 57.3 °F 34.4 °F 30.00 in ESE 1.0 mph 4.0 mph 42 % 0.00 in 0.00 W/m2
23:24 57.2 °F 34.3 °F 30.00 in Calm   4.0 mph 42 % 0.00 in 0.00 W/m2
23:28 57.1 °F 34.2 °F 30.00 in Calm   4.0 mph 42 % 0.00 in 0.00 W/m2
23:34 57.0 °F 34.2 °F 30.00 in East 5.0 mph 6.0 mph 42 % 0.00 in 0.00 W/m2
23:39 56.9 °F 34.1 °F 30.00 in Calm   4.0 mph 42 % 0.00 in 0.00 W/m2
23:44 56.8 °F 34.0 °F 30.00 in ESE 1.0 mph 6.0 mph 42 % 0.00 in 0.00 W/m2
23:49 56.8 °F 34.6 °F 30.00 in Calm   6.0 mph 43 % 0.00 in 0.00 W/m2
23:54 56.7 °F 34.5 °F 30.00 in Calm   8.0 mph 43 % 0.00 in 0.00 W/m2
23:59 56.6 °F 34.4 °F 30.00 in ESE 1.0 mph 4.0 mph 43 % 0.00 in 0.00 W/m2
Juneau County Weather
Compliments of Weather Underground - 4.5 mb
 WU-history PHP script courtesy of   Juneau County Weather.
powered by Cumulus v1.9.3 (1059)
Ambient Weather VWS v14.00
Top Contact Website Map Copyright © 2007 - 2018 Foresthillweather.com Never base important decisions on this or any weather information obtained from the Internet